SL-16 DEB, 22430

Orbit data source: Space-Track

SL-16 DEB, 22430 is space debris in LEO originally from a launch on Fri, 25 Dec 1992 UTC launched from the Tyuratam Missile And Space Complex (TTMTR). Debris objects in space refer to the collection of defunct objects orbiting the Earth. Examples of debris include non-operational satellites, rocket bodies, and fragments generated from explosions, collisions, or faulty payload assembly.

Loading next visibility...
Identifier
22430, 1992-093DX
Orbit
LEO
Country
Flag of CISCIS
Related business
Manufacturer
Unknown
Mission
Spacecraft
Bus & Motor
Unknown
Mass
Unknown
Launch date (UTC)
1992-12-25 (33 years ago)
Launch vehicle
Unknown
Launch site
Tyuratam Missile And Space Complex (TTMTR)
Object type
Payload
Rocket body
Debris
Shape & HBR
Unknown shape, 0.1 m
Radar Cross Section
Small (<0.1 m²)

Expand to show TLE details & history
Last TLE update: 14 hours ago

TLE from 14 hours ago
0 SL-16 DEB
1 22430U 92093DX  26132.88150843  .00000121  00000-0  11331-3 0  9991
2 22430  71.2357 296.4104 0113082  95.9482  22.6489 13.96093465695542
Epoch: 2026-05-12T21:09Z
TLE epoch observation values (Epoch: 2026-05-12T21:09:22.328Z)
Latitude
55.93489°
Longitude
-101.5676°
Altitude
840.237 km
Speed
7.477 km/s
True Right ascension
05h 45m 41s
True Declination
55° 46' 37"
Sunlit
Object was in daylight at epoch
Visualization orbit readout
Latitude
Unknown
Longitude
Unknown
Altitude
Unknown
Speed
Unknown
Apparent Right ascension
Unknown
Apparent Declination
Unknown
Sunlit
N/A
Visualization observer readout
Local Sidereal Time
19:34:08
Azimuth
Unknown
Elevation
Unknown
Doppler factor
Unknown
Orbital elements
Apogee altitude
987.637 km
Perigee altitude
822.912 km
Semi-major axis
7,283.412 km
Eccentricity
0.01131
Inclination
71.2357°
RAAN
296.4104°
Arg. of periapsis
95.9482°
True anomaly
23.15449°
Mean anomaly
22.6489°
Eccentric anomaly
22.90103°
Mean motion
3.49173 °/min
Orbital period
103.1 mins
BSTAR
0.00011331
Loading maneuver chart data...
Computing Atmospheric mass density...
Loading historical data...
Loading historical data...
Loading historical data...
Loading historical data...
Loading historical data...
Loading historical data...
Loading historical data...

Documentation

Showing up to 5 results
|